Weather History for KPUW - January, 2014

Change the Weather History Date:

Wednesday, January 1, 2014

  Actual Average Record
Temperature  
Mean Temperature 34 °F 30 °F  
Max Temperature 40 °F 35 °F 48 °F (1997)
Min Temperature 28 °F 25 °F -15 °F (1952)
Degree Days  
Heating Degree Days 31 35  
Month to date heating degree days 31 35  
Since 1 July heating degree days 2885 2859  
Cooling Degree Days 0 0  
Month to date cooling degree days 0 0  
Year to date cooling degree days 0 0  
Moisture  
Dew Point 30 °F    
Average Humidity 84    
Maximum Humidity 92    
Minimum Humidity 76    
Precipitation  
Precipitation 0.00 in 0.04 in 0.80 in (1997)
Month to date precipitation 0.00 0.04  
Year to date precipitation 0.00 0.04  
Sea Level Pressure  
Sea Level Pressure 30.43 in    
Wind  
Wind Speed 6 mph (East)    
Max Wind Speed 13 mph    
Max Gust Speed 16 mph    
Visibility 10 miles    
Events      
T = Trace of Precipitation, MM = Missing Value Source: NWS Daily Summary

Daily Weather History Graph

Daily Weather History Graph

Search for Another Location

Airport or City:

Trip Planner

Search our weather history database for the weather conditions in past years. The results will help you decide how hot, cold, wet, or windy it might be!

Date:

Astronomy

Jan. 01, 2014 Rise Set
Actual Time 7:33 AM PST 4:11 PM PST
Civil Twilight 6:58 AM PST 4:46 PM PST
Nautical Twilight 6:19 AM PST 5:24 PM PST
Astronomical Twilight 5:43 AM PST 6:01 PM PST
Moon 7:23 AM PST (1/1) 5:06 PM PST (1/1)
Length of Visible Light 9h 48m
Length of Day
8h 37m
New Moon, 0% of the Moon is Illuminated
Jan 1
New Moon
Jan 7
First Quarter
Jan 15
Full
Jan 23
Last Quarter
Jan 30
New

Hourly Weather History & Observations

Time (PST) Temp. Windchill Dew Point Humidity Pressure Visibility Wind Dir Wind Speed Gust Speed Precip Events Conditions
12:53 AM 30.9 °F 27.5 °F 28.0 °F 89% 30.39 in 10.0 mi NE 3.5 mph - N/A   Clear
1:53 AM 30.9 °F 24.3 °F 28.0 °F 89% 30.41 in 10.0 mi NE 6.9 mph - N/A   Clear
2:53 AM 28.0 °F - 25.0 °F 88% 30.43 in 9.0 mi Calm Calm - N/A   Clear
3:53 AM 32.0 °F 28.7 °F 28.9 °F 88% 30.44 in 10.0 mi East 3.5 mph - N/A   Clear
4:53 AM 30.9 °F - 28.0 °F 89% 30.45 in 10.0 mi Calm Calm - N/A   Clear
5:53 AM 32.0 °F 28.7 °F 28.9 °F 88% 30.46 in 10.0 mi ESE 3.5 mph - N/A   Clear
6:53 AM 30.9 °F - 28.0 °F 89% 30.47 in 10.0 mi Calm Calm - N/A   Clear
7:22 AM 30.2 °F 26.7 °F 28.4 °F 93% 30.39 in 10.0 mi NNE 3.5 mph - N/A   Mostly Cloudy
7:48 AM 30.2 °F 26.7 °F 28.4 °F 93% 30.39 in 10.0 mi East 3.5 mph - N/A   Scattered Clouds
7:53 AM 30.0 °F 25.2 °F 28.0 °F 92% 30.48 in 10.0 mi East 4.6 mph - N/A   Partly Cloudy
8:53 AM 33.1 °F 26.9 °F 30.0 °F 89% 30.49 in 10.0 mi East 6.9 mph - N/A   Clear
9:53 AM 37.0 °F 31.0 °F 32.0 °F 82% 30.48 in 10.0 mi ESE 8.1 mph - N/A   Clear
10:53 AM 39.0 °F 32.8 °F 32.0 °F 76% 30.46 in 10.0 mi SE 9.2 mph - N/A   Clear
11:53 AM 39.0 °F 32.8 °F 32.0 °F 76% 30.44 in 10.0 mi SSE 9.2 mph - N/A   Clear
12:53 PM 39.0 °F 34.0 °F 32.0 °F 76% 30.43 in 10.0 mi SE 6.9 mph - N/A   Clear
1:53 PM 39.0 °F 33.4 °F 32.0 °F 76% 30.43 in 10.0 mi SE 8.1 mph - N/A   Clear
2:53 PM 37.9 °F 32.1 °F 32.0 °F 79% 30.43 in 10.0 mi ESE 8.1 mph - N/A   Clear
3:53 PM 36.0 °F 30.3 °F 30.0 °F 79% 30.42 in 10.0 mi ESE 6.9 mph - N/A   Clear
4:53 PM 34.0 °F 31.0 °F 30.0 °F 85% 30.43 in 10.0 mi ESE 3.5 mph - N/A   Clear
5:53 PM 34.0 °F 28.8 °F 30.0 °F 85% 30.42 in 10.0 mi ESE 5.8 mph - N/A   Clear
6:53 PM 34.0 °F 28.8 °F 30.0 °F 85% 30.41 in 10.0 mi East 5.8 mph - N/A   Clear
7:53 PM 34.0 °F 31.0 °F 30.0 °F 85% 30.41 in 10.0 mi Variable 3.5 mph - N/A   Clear
8:53 PM 35.1 °F 29.3 °F 30.0 °F 82% 30.41 in 10.0 mi ESE 6.9 mph - N/A   Clear
9:53 PM 33.1 °F 26.1 °F 30.0 °F 89% 30.40 in 10.0 mi East 8.1 mph - N/A   Partly Cloudy
10:53 PM 34.0 °F 26.6 °F 30.0 °F 85% 30.38 in 10.0 mi East 9.2 mph - N/A   Overcast
11:53 PM 34.0 °F 27.2 °F 30.0 °F 85% 30.38 in 10.0 mi East 8.1 mph - N/A   Overcast